Year,Month,Day,Hour,Minute,Value (Times are PST for temperature in C)
2013,09,08,00,00,14.60
2013,09,08,00,01,14.60
2013,09,08,00,02,14.60
2013,09,08,00,03,14.60
2013,09,08,00,04,14.60
2013,09,08,00,05,14.60
2013,09,08,00,06,14.60
2013,09,08,00,07,14.50
2013,09,08,00,08,14.60
2013,09,08,00,09,14.60
2013,09,08,00,10,14.60
2013,09,08,00,11,14.60
2013,09,08,00,12,14.60
2013,09,08,00,13,14.60
2013,09,08,00,14,14.60
2013,09,08,00,15,14.60
2013,09,08,00,16,14.60
2013,09,08,00,17,14.60
2013,09,08,00,18,14.60
2013,09,08,00,19,14.70
2013,09,08,00,20,14.70
2013,09,08,00,21,14.70
2013,09,08,00,22,14.70
2013,09,08,00,23,14.70
2013,09,08,00,24,14.70
2013,09,08,00,25,14.70
2013,09,08,00,26,14.70
2013,09,08,00,27,14.70
2013,09,08,00,28,14.70
2013,09,08,00,29,14.70
2013,09,08,00,30,14.80
2013,09,08,00,31,14.80
2013,09,08,00,32,14.80
2013,09,08,00,33,14.80
2013,09,08,00,34,14.90
2013,09,08,00,35,14.90
2013,09,08,00,36,14.90
2013,09,08,00,37,14.90
2013,09,08,00,38,15.00
2013,09,08,00,39,15.00
2013,09,08,00,40,15.00
2013,09,08,00,41,15.00
2013,09,08,00,42,15.00
2013,09,08,00,43,15.00
2013,09,08,00,44,15.00
2013,09,08,00,45,15.00
2013,09,08,00,46,15.00
2013,09,08,00,47,15.00
2013,09,08,00,48,15.00
2013,09,08,00,49,15.00
2013,09,08,00,50,15.00
2013,09,08,00,51,15.10
2013,09,08,00,52,15.10
2013,09,08,00,53,15.10
2013,09,08,00,54,15.10
2013,09,08,00,55,15.10
2013,09,08,00,56,15.00
2013,09,08,00,57,15.00
2013,09,08,00,58,15.00
2013,09,08,00,59,15.00
2013,09,08,01,00,14.90
2013,09,08,01,01,14.90
2013,09,08,01,02,14.90
2013,09,08,01,03,14.90
2013,09,08,01,04,14.90
2013,09,08,01,05,14.80
2013,09,08,01,06,14.80
2013,09,08,01,07,14.70
2013,09,08,01,08,14.70
2013,09,08,01,09,14.60
2013,09,08,01,10,14.60
2013,09,08,01,11,14.60
2013,09,08,01,12,14.50
2013,09,08,01,13,14.50
2013,09,08,01,14,14.50
2013,09,08,01,15,14.50
2013,09,08,01,16,14.50
2013,09,08,01,17,14.50
2013,09,08,01,18,14.50
2013,09,08,01,19,14.40
2013,09,08,01,20,14.40
2013,09,08,01,21,14.40
2013,09,08,01,22,14.40
2013,09,08,01,23,14.40
2013,09,08,01,24,14.40
2013,09,08,01,25,14.40
2013,09,08,01,26,14.40
2013,09,08,01,27,14.40
2013,09,08,01,28,14.40
2013,09,08,01,29,14.40
2013,09,08,01,30,14.40
2013,09,08,01,31,14.40
2013,09,08,01,32,14.40
2013,09,08,01,33,14.40
2013,09,08,01,34,14.40
2013,09,08,01,35,14.50
2013,09,08,01,36,14.50
2013,09,08,01,37,14.60
2013,09,08,01,38,14.60
2013,09,08,01,39,14.60
2013,09,08,01,40,14.60
2013,09,08,01,41,14.70
2013,09,08,01,42,14.70
2013,09,08,01,43,14.70
2013,09,08,01,44,14.70
2013,09,08,01,45,14.70
2013,09,08,01,46,14.70
2013,09,08,01,47,14.70
2013,09,08,01,48,14.70
2013,09,08,01,49,14.70
2013,09,08,01,50,14.60
2013,09,08,01,51,14.60
2013,09,08,01,52,14.60
2013,09,08,01,53,14.60
2013,09,08,01,54,14.50
2013,09,08,01,55,14.40
2013,09,08,01,56,14.40
2013,09,08,01,57,14.30
2013,09,08,01,58,14.30
2013,09,08,01,59,14.20
2013,09,08,02,00,14.20
2013,09,08,02,01,14.10
2013,09,08,02,02,14.10
2013,09,08,02,03,14.00
2013,09,08,02,04,14.00
2013,09,08,02,05,13.90
2013,09,08,02,06,13.90
2013,09,08,02,07,13.90
2013,09,08,02,08,13.90
2013,09,08,02,09,13.80
2013,09,08,02,10,13.80
2013,09,08,02,11,13.80
2013,09,08,02,12,13.80
2013,09,08,02,13,13.80
2013,09,08,02,14,13.80
2013,09,08,02,15,13.80
2013,09,08,02,16,13.80
2013,09,08,02,17,13.80
2013,09,08,02,18,13.80
2013,09,08,02,19,13.80
2013,09,08,02,20,13.80
2013,09,08,02,21,13.80
2013,09,08,02,22,13.90
2013,09,08,02,23,13.90
2013,09,08,02,24,13.90
2013,09,08,02,25,14.00
2013,09,08,02,26,14.00
2013,09,08,02,27,14.00
2013,09,08,02,28,14.00
2013,09,08,02,29,14.00
2013,09,08,02,30,14.00
2013,09,08,02,31,14.00
2013,09,08,02,32,13.90
2013,09,08,02,33,13.90
2013,09,08,02,34,13.90
2013,09,08,02,35,13.90
2013,09,08,02,36,13.90
2013,09,08,02,37,13.90
2013,09,08,02,38,13.90
2013,09,08,02,39,13.90
2013,09,08,02,40,13.90
2013,09,08,02,41,13.90
2013,09,08,02,42,13.90
2013,09,08,02,43,13.90
2013,09,08,02,44,13.90
2013,09,08,02,45,14.00
2013,09,08,02,46,14.00
2013,09,08,02,47,14.00
2013,09,08,02,48,13.90
2013,09,08,02,49,13.90
2013,09,08,02,50,13.90
2013,09,08,02,51,13.90
2013,09,08,02,52,13.90
2013,09,08,02,53,13.90
2013,09,08,02,54,13.90
2013,09,08,02,55,13.90
2013,09,08,02,56,13.90
2013,09,08,02,57,13.90
2013,09,08,02,58,13.90
2013,09,08,02,59,13.90
2013,09,08,03,00,13.90
2013,09,08,03,01,13.90
2013,09,08,03,02,13.90
2013,09,08,03,03,13.90
2013,09,08,03,04,13.90
2013,09,08,03,05,13.90
2013,09,08,03,06,13.90
2013,09,08,03,07,13.90
2013,09,08,03,08,13.90
2013,09,08,03,09,13.90
2013,09,08,03,10,13.80
2013,09,08,03,11,13.80
2013,09,08,03,12,13.80
2013,09,08,03,13,13.80
2013,09,08,03,14,13.80
2013,09,08,03,15,13.80
2013,09,08,03,16,13.80
2013,09,08,03,17,13.80
2013,09,08,03,18,13.80
2013,09,08,03,19,13.80
2013,09,08,03,20,13.80
2013,09,08,03,21,13.80
2013,09,08,03,22,13.80
2013,09,08,03,23,13.80
2013,09,08,03,24,13.80
2013,09,08,03,25,13.80
2013,09,08,03,26,13.80
2013,09,08,03,27,13.80
2013,09,08,03,28,13.80
2013,09,08,03,29,13.80
2013,09,08,03,30,13.80
2013,09,08,03,31,13.80
2013,09,08,03,32,13.80
2013,09,08,03,33,13.80
2013,09,08,03,34,13.80
2013,09,08,03,35,13.90
2013,09,08,03,36,13.90
2013,09,08,03,37,13.90
2013,09,08,03,38,13.90
2013,09,08,03,39,13.90
2013,09,08,03,40,13.90
2013,09,08,03,41,13.90
2013,09,08,03,42,13.90
2013,09,08,03,43,13.90
2013,09,08,03,44,13.90
2013,09,08,03,45,13.90
2013,09,08,03,46,13.90
2013,09,08,03,47,13.90
2013,09,08,03,48,13.90
2013,09,08,03,49,13.90
2013,09,08,03,50,13.90
2013,09,08,03,51,13.90
2013,09,08,03,52,13.80
2013,09,08,03,53,13.80
2013,09,08,03,54,13.80
2013,09,08,03,55,13.80
2013,09,08,03,56,13.80
2013,09,08,03,57,13.80
2013,09,08,03,58,13.80
2013,09,08,03,59,13.80
2013,09,08,04,00,13.80
2013,09,08,04,01,13.80
2013,09,08,04,02,13.80
2013,09,08,04,03,13.80
2013,09,08,04,04,13.80
2013,09,08,04,05,13.80
2013,09,08,04,06,13.80
2013,09,08,04,07,13.80
2013,09,08,04,08,13.80
2013,09,08,04,09,13.80
2013,09,08,04,10,13.80
2013,09,08,04,11,13.80
2013,09,08,04,12,13.80
2013,09,08,04,13,13.80
2013,09,08,04,14,13.80
2013,09,08,04,15,13.80
2013,09,08,04,16,13.80
2013,09,08,04,17,13.80
2013,09,08,04,18,13.80
2013,09,08,04,19,13.80
2013,09,08,04,20,13.80
2013,09,08,04,21,13.80
2013,09,08,04,22,13.80
2013,09,08,04,23,13.80
2013,09,08,04,24,13.80
2013,09,08,04,25,13.70
2013,09,08,04,26,13.70
2013,09,08,04,27,13.80
2013,09,08,04,28,13.80
2013,09,08,04,29,13.80
2013,09,08,04,30,13.80
2013,09,08,04,31,13.80
2013,09,08,04,32,13.70
2013,09,08,04,33,13.70
2013,09,08,04,34,13.70
2013,09,08,04,35,13.70
2013,09,08,04,36,13.70
2013,09,08,04,37,13.70
2013,09,08,04,38,13.70
2013,09,08,04,39,13.70
2013,09,08,04,40,13.70
2013,09,08,04,41,13.70
2013,09,08,04,42,13.70
2013,09,08,04,43,13.70
2013,09,08,04,44,13.70
2013,09,08,04,45,13.70
2013,09,08,04,46,13.70
2013,09,08,04,47,13.70
2013,09,08,04,48,13.70
2013,09,08,04,49,13.70
2013,09,08,04,50,13.70
2013,09,08,04,51,13.70
2013,09,08,04,52,13.70
2013,09,08,04,53,13.60
2013,09,08,04,54,13.60
2013,09,08,04,55,13.60
2013,09,08,04,56,13.60
2013,09,08,04,57,13.60
2013,09,08,04,58,13.60
2013,09,08,04,59,13.60
2013,09,08,05,00,13.60
2013,09,08,05,01,13.60
2013,09,08,05,02,13.60
2013,09,08,05,03,13.60
2013,09,08,05,04,13.60
2013,09,08,05,05,13.60
2013,09,08,05,06,13.60
2013,09,08,05,07,13.60
2013,09,08,05,08,13.60
2013,09,08,05,09,13.60
2013,09,08,05,10,13.60
2013,09,08,05,11,13.60
2013,09,08,05,12,13.50
2013,09,08,05,13,13.50
2013,09,08,05,14,13.50
2013,09,08,05,15,13.50
2013,09,08,05,16,13.50
2013,09,08,05,17,13.50
2013,09,08,05,18,13.50
2013,09,08,05,19,13.50
2013,09,08,05,20,13.40
2013,09,08,05,21,13.40
2013,09,08,05,22,13.40
2013,09,08,05,23,13.40
2013,09,08,05,24,13.40
2013,09,08,05,25,13.40
2013,09,08,05,26,13.40
2013,09,08,05,27,13.40
2013,09,08,05,28,13.40
2013,09,08,05,29,13.40
2013,09,08,05,30,13.40
2013,09,08,05,31,13.40
2013,09,08,05,32,13.40
2013,09,08,05,33,13.50
2013,09,08,05,34,13.40
2013,09,08,05,35,13.40
2013,09,08,05,36,13.40
2013,09,08,05,37,13.40
2013,09,08,05,38,13.40
2013,09,08,05,39,13.50
2013,09,08,05,40,13.50
2013,09,08,05,41,13.50
2013,09,08,05,42,13.50
2013,09,08,05,43,13.50
2013,09,08,05,44,13.50
2013,09,08,05,45,13.60
2013,09,08,05,46,13.60
2013,09,08,05,47,13.60
2013,09,08,05,48,13.60
2013,09,08,05,49,13.60
2013,09,08,05,50,13.60
2013,09,08,05,51,13.60
2013,09,08,05,52,13.60
2013,09,08,05,53,13.50
2013,09,08,05,54,13.50
2013,09,08,05,55,13.50
2013,09,08,05,56,13.50
2013,09,08,05,57,13.50
2013,09,08,05,58,13.50
2013,09,08,05,59,13.50
2013,09,08,06,00,13.60
2013,09,08,06,01,13.60
2013,09,08,06,02,13.60
2013,09,08,06,03,13.60
2013,09,08,06,04,13.60
2013,09,08,06,05,13.60
2013,09,08,06,06,13.70
2013,09,08,06,07,13.70
2013,09,08,06,08,13.80
2013,09,08,06,09,13.80
2013,09,08,06,10,13.80
2013,09,08,06,11,13.80
2013,09,08,06,12,13.80
2013,09,08,06,13,13.90
2013,09,08,06,14,13.90
2013,09,08,06,15,13.90
2013,09,08,06,16,13.90
2013,09,08,06,17,13.90
2013,09,08,06,18,13.90
2013,09,08,06,19,13.90
2013,09,08,06,20,13.90
2013,09,08,06,21,13.90
2013,09,08,06,22,13.90
2013,09,08,06,23,13.90
2013,09,08,06,24,13.80
2013,09,08,06,25,13.80
2013,09,08,06,26,13.80
2013,09,08,06,27,13.80
2013,09,08,06,28,13.80
2013,09,08,06,29,13.80
2013,09,08,06,30,13.70
2013,09,08,06,31,13.70
2013,09,08,06,32,13.70
2013,09,08,06,33,13.70
2013,09,08,06,34,13.60
2013,09,08,06,35,13.60
2013,09,08,06,36,13.60
2013,09,08,06,37,13.60
2013,09,08,06,38,13.60
2013,09,08,06,39,13.60
2013,09,08,06,40,13.50
2013,09,08,06,41,13.50
2013,09,08,06,42,13.50
2013,09,08,06,43,13.40
2013,09,08,06,44,13.40
2013,09,08,06,45,13.40
2013,09,08,06,46,13.40
2013,09,08,06,47,13.40
2013,09,08,06,48,13.40
2013,09,08,06,49,13.40
2013,09,08,06,50,13.30
2013,09,08,06,51,13.30
2013,09,08,06,52,13.30
2013,09,08,06,53,13.30
2013,09,08,06,54,13.30
2013,09,08,06,55,13.30
2013,09,08,06,56,13.20
2013,09,08,06,57,13.20
2013,09,08,06,58,13.20
2013,09,08,06,59,13.20
2013,09,08,07,00,13.20
2013,09,08,07,01,13.20
2013,09,08,07,02,13.20
2013,09,08,07,03,13.20
2013,09,08,07,04,13.20
2013,09,08,07,05,13.20
2013,09,08,07,06,13.20
2013,09,08,07,07,13.20
2013,09,08,07,08,13.10
2013,09,08,07,09,13.20
2013,09,08,07,10,13.20
2013,09,08,07,11,13.20
2013,09,08,07,12,13.20
2013,09,08,07,13,13.20
2013,09,08,07,14,13.20
2013,09,08,07,15,13.30
2013,09,08,07,16,13.30
2013,09,08,07,17,13.30
2013,09,08,07,18,13.30
2013,09,08,07,19,13.30
2013,09,08,07,20,13.30
2013,09,08,07,21,13.30
2013,09,08,07,22,13.30
2013,09,08,07,23,13.30
2013,09,08,07,24,13.30
2013,09,08,07,25,13.30
2013,09,08,07,26,13.30
2013,09,08,07,27,13.30
2013,09,08,07,28,13.30
2013,09,08,07,29,13.30
2013,09,08,07,30,13.40
2013,09,08,07,31,13.40
2013,09,08,07,32,13.40
2013,09,08,07,33,13.40
2013,09,08,07,34,13.40
2013,09,08,07,35,13.40
2013,09,08,07,36,13.40
2013,09,08,07,37,13.50
2013,09,08,07,38,13.50
2013,09,08,07,39,13.50
2013,09,08,07,40,13.60
2013,09,08,07,41,13.60
2013,09,08,07,42,13.60
2013,09,08,07,43,13.60
2013,09,08,07,44,13.70
2013,09,08,07,45,13.70
2013,09,08,07,46,13.70
2013,09,08,07,47,13.70
2013,09,08,07,48,13.70
2013,09,08,07,49,13.70
2013,09,08,07,50,13.70
2013,09,08,07,51,13.80
2013,09,08,07,52,13.80
2013,09,08,07,53,13.80
2013,09,08,07,54,13.80
2013,09,08,07,55,13.80
2013,09,08,07,56,13.80
2013,09,08,07,57,13.80
2013,09,08,07,58,13.80
2013,09,08,07,59,13.80
2013,09,08,08,00,13.90
2013,09,08,08,01,13.90
2013,09,08,08,02,13.90
2013,09,08,08,03,14.00
2013,09,08,08,04,14.00
2013,09,08,08,05,14.10
2013,09,08,08,06,14.10
2013,09,08,08,07,14.10
2013,09,08,08,08,14.20
2013,09,08,08,09,14.20
2013,09,08,08,10,14.20
2013,09,08,08,11,14.30
2013,09,08,08,12,14.30
2013,09,08,08,13,14.30
2013,09,08,08,14,14.30
2013,09,08,08,15,14.40
2013,09,08,08,16,14.40
2013,09,08,08,17,14.50
2013,09,08,08,18,14.50
2013,09,08,08,19,14.60
2013,09,08,08,20,14.60
2013,09,08,08,21,14.60
2013,09,08,08,22,14.60
2013,09,08,08,23,14.60
2013,09,08,08,24,14.70
2013,09,08,08,25,14.70
2013,09,08,08,26,14.70
2013,09,08,08,27,14.80
2013,09,08,08,28,14.80
2013,09,08,08,29,14.80
2013,09,08,08,30,14.90
2013,09,08,08,31,14.90
2013,09,08,08,32,14.90
2013,09,08,08,33,15.00
2013,09,08,08,34,15.00
2013,09,08,08,35,15.10
2013,09,08,08,36,15.20
2013,09,08,08,37,15.20
2013,09,08,08,38,15.30
2013,09,08,08,39,15.40
2013,09,08,08,40,15.40
2013,09,08,08,41,15.50
2013,09,08,08,42,15.60
2013,09,08,08,43,15.60
2013,09,08,08,44,15.70
2013,09,08,08,45,15.80
2013,09,08,08,46,15.80
2013,09,08,08,47,15.90
2013,09,08,08,48,15.90
2013,09,08,08,49,15.90
2013,09,08,08,50,16.00
2013,09,08,08,51,16.00
2013,09,08,08,52,16.00
2013,09,08,08,53,16.10
2013,09,08,08,54,16.10
2013,09,08,08,55,16.10
2013,09,08,08,56,16.10
2013,09,08,08,57,16.20
2013,09,08,08,58,16.20
2013,09,08,08,59,16.20
2013,09,08,09,00,16.20
2013,09,08,09,01,16.30
2013,09,08,09,02,16.30
2013,09,08,09,03,16.30
2013,09,08,09,04,16.30
2013,09,08,09,05,16.30
2013,09,08,09,06,16.40
2013,09,08,09,07,16.40
2013,09,08,09,08,16.40
2013,09,08,09,09,16.40
2013,09,08,09,10,16.40
2013,09,08,09,11,16.40
2013,09,08,09,12,16.40
2013,09,08,09,13,16.40
2013,09,08,09,14,16.40
2013,09,08,09,15,16.40
2013,09,08,09,16,16.50
2013,09,08,09,17,16.50
2013,09,08,09,18,16.60
2013,09,08,09,19,16.60
2013,09,08,09,20,16.70
2013,09,08,09,21,16.70
2013,09,08,09,22,16.70
2013,09,08,09,23,16.70
2013,09,08,09,24,16.80
2013,09,08,09,25,16.80
2013,09,08,09,26,16.80
2013,09,08,09,27,16.80
2013,09,08,09,28,16.80
2013,09,08,09,29,16.90
2013,09,08,09,30,16.90
2013,09,08,09,31,17.00
2013,09,08,09,32,17.00
2013,09,08,09,33,17.10
2013,09,08,09,34,17.10
2013,09,08,09,35,17.20
2013,09,08,09,36,17.20
2013,09,08,09,37,17.20
2013,09,08,09,38,17.20
2013,09,08,09,39,17.20
2013,09,08,09,40,17.20
2013,09,08,09,41,17.20
2013,09,08,09,42,17.20
2013,09,08,09,43,17.20
2013,09,08,09,44,17.20
2013,09,08,09,45,17.10
2013,09,08,09,46,17.10
2013,09,08,09,47,17.00
2013,09,08,09,48,16.90
2013,09,08,09,49,16.90
2013,09,08,09,50,16.80
2013,09,08,09,51,16.80
2013,09,08,09,52,16.80
2013,09,08,09,53,16.70
2013,09,08,09,54,16.70
2013,09,08,09,55,16.80
2013,09,08,09,56,16.80
2013,09,08,09,57,16.90
2013,09,08,09,58,17.00
2013,09,08,09,59,17.00
2013,09,08,10,00,17.00
2013,09,08,10,01,17.00
2013,09,08,10,02,17.00
2013,09,08,10,03,16.90
2013,09,08,10,04,16.90
2013,09,08,10,05,16.80
2013,09,08,10,06,16.80
2013,09,08,10,07,16.80
2013,09,08,10,08,16.80
2013,09,08,10,09,16.80
2013,09,08,10,10,16.80
2013,09,08,10,11,16.80
2013,09,08,10,12,16.80
2013,09,08,10,13,16.90
2013,09,08,10,14,16.90
2013,09,08,10,15,16.90
2013,09,08,10,16,16.90
2013,09,08,10,17,16.90
2013,09,08,10,18,16.90
2013,09,08,10,19,16.90
2013,09,08,10,20,16.90
2013,09,08,10,21,16.90
2013,09,08,10,22,16.90
2013,09,08,10,23,16.90
2013,09,08,10,24,17.00
2013,09,08,10,25,17.00
2013,09,08,10,26,16.90
2013,09,08,10,27,16.80
2013,09,08,10,28,16.70
2013,09,08,10,29,16.70
2013,09,08,10,30,16.70
2013,09,08,10,31,16.60
2013,09,08,10,32,16.60
2013,09,08,10,33,16.60
2013,09,08,10,34,16.60
2013,09,08,10,35,16.60
2013,09,08,10,36,16.60
2013,09,08,10,37,16.60
2013,09,08,10,38,16.70
2013,09,08,10,39,16.70
2013,09,08,10,40,16.70
2013,09,08,10,41,16.80
2013,09,08,10,42,16.90
2013,09,08,10,43,16.90
2013,09,08,10,44,17.00
2013,09,08,10,45,17.10
2013,09,08,10,46,17.10
2013,09,08,10,47,17.20
2013,09,08,10,48,17.20
2013,09,08,10,49,17.30
2013,09,08,10,50,17.30
2013,09,08,10,51,17.30
2013,09,08,10,52,17.40
2013,09,08,10,53,17.40
2013,09,08,10,54,17.40
2013,09,08,10,55,17.50
2013,09,08,10,56,17.50
2013,09,08,10,57,17.50
2013,09,08,10,58,17.50
2013,09,08,10,59,17.50
2013,09,08,11,00,17.50
2013,09,08,11,01,17.50
2013,09,08,11,02,17.50
2013,09,08,11,03,17.60
2013,09,08,11,04,17.60
2013,09,08,11,05,17.70
2013,09,08,11,06,17.80
2013,09,08,11,07,17.90
2013,09,08,11,08,18.00
2013,09,08,11,09,18.10
2013,09,08,11,10,18.10
2013,09,08,11,11,18.20
2013,09,08,11,12,18.20
2013,09,08,11,13,18.30
2013,09,08,11,14,18.30
2013,09,08,11,15,18.40
2013,09,08,11,16,18.40
2013,09,08,11,17,18.40
2013,09,08,11,18,18.40
2013,09,08,11,19,18.40
2013,09,08,11,20,18.40
2013,09,08,11,21,18.40
2013,09,08,11,22,18.40
2013,09,08,11,23,18.40
2013,09,08,11,24,18.40
2013,09,08,11,25,18.40
2013,09,08,11,26,18.50
2013,09,08,11,27,18.50
2013,09,08,11,28,18.60
2013,09,08,11,29,18.70
2013,09,08,11,30,18.70
2013,09,08,11,31,18.70
2013,09,08,11,32,18.80
2013,09,08,11,33,18.80
2013,09,08,11,34,18.80
2013,09,08,11,35,18.90
2013,09,08,11,36,18.90
2013,09,08,11,37,18.90
2013,09,08,11,38,18.90
2013,09,08,11,39,18.90
2013,09,08,11,40,18.90
2013,09,08,11,41,18.90
2013,09,08,11,42,19.00
2013,09,08,11,43,19.00
2013,09,08,11,44,19.00
2013,09,08,11,45,19.00
2013,09,08,11,46,19.00
2013,09,08,11,47,19.00
2013,09,08,11,48,19.00
2013,09,08,11,49,19.00
2013,09,08,11,50,18.90
2013,09,08,11,51,18.90
2013,09,08,11,52,18.90
2013,09,08,11,53,18.90
2013,09,08,11,54,18.90
2013,09,08,11,55,18.90
2013,09,08,11,56,19.00
2013,09,08,11,57,19.00
2013,09,08,11,58,19.10
2013,09,08,11,59,19.10
2013,09,08,12,00,19.20
2013,09,08,12,01,19.20
2013,09,08,12,02,19.30
2013,09,08,12,03,19.30
2013,09,08,12,04,19.30
2013,09,08,12,05,19.20
2013,09,08,12,06,19.20
2013,09,08,12,07,19.20
2013,09,08,12,08,19.20
2013,09,08,12,09,19.20
2013,09,08,12,10,19.20
2013,09,08,12,11,19.20
2013,09,08,12,12,19.10
2013,09,08,12,13,19.10
2013,09,08,12,14,19.10
2013,09,08,12,15,19.10
2013,09,08,12,16,19.20
2013,09,08,12,17,19.10
2013,09,08,12,18,19.10
2013,09,08,12,19,19.00
2013,09,08,12,20,19.00
2013,09,08,12,21,18.90
2013,09,08,12,22,18.90
2013,09,08,12,23,18.90
2013,09,08,12,24,18.90
2013,09,08,12,25,18.90
2013,09,08,12,26,18.90
2013,09,08,12,27,18.90
2013,09,08,12,28,18.90
2013,09,08,12,29,18.90
2013,09,08,12,30,18.90
2013,09,08,12,31,19.00
2013,09,08,12,32,19.00
2013,09,08,12,33,19.10
2013,09,08,12,34,19.10
2013,09,08,12,35,19.10
2013,09,08,12,36,19.10
2013,09,08,12,37,19.10
2013,09,08,12,38,19.00
2013,09,08,12,39,19.10
2013,09,08,12,40,19.10
2013,09,08,12,41,19.00
2013,09,08,12,42,19.00
2013,09,08,12,43,18.90
2013,09,08,12,44,18.90
2013,09,08,12,45,18.80
2013,09,08,12,46,18.70
2013,09,08,12,47,18.70
2013,09,08,12,48,18.70
2013,09,08,12,49,18.70
2013,09,08,12,50,18.70
2013,09,08,12,51,18.70
2013,09,08,12,52,18.70
2013,09,08,12,53,18.70
2013,09,08,12,54,18.80
2013,09,08,12,55,18.80
2013,09,08,12,56,18.80
2013,09,08,12,57,18.90
2013,09,08,12,58,18.90
2013,09,08,12,59,19.00
2013,09,08,13,00,19.00
2013,09,08,13,01,19.00
2013,09,08,13,02,18.90
2013,09,08,13,03,18.90
2013,09,08,13,04,19.00
2013,09,08,13,05,18.90
2013,09,08,13,06,18.90
2013,09,08,13,07,18.90
2013,09,08,13,08,18.90
2013,09,08,13,09,18.90
2013,09,08,13,10,18.90
2013,09,08,13,11,18.90
2013,09,08,13,12,18.80
2013,09,08,13,13,18.80
2013,09,08,13,14,18.80
2013,09,08,13,15,18.80
2013,09,08,13,16,18.70
2013,09,08,13,17,18.70
2013,09,08,13,18,18.80
2013,09,08,13,19,18.80
2013,09,08,13,20,18.80
2013,09,08,13,21,18.90
2013,09,08,13,22,18.90
2013,09,08,13,23,18.90
2013,09,08,13,24,18.90
2013,09,08,13,25,19.00
2013,09,08,13,26,19.00
2013,09,08,13,27,19.00
2013,09,08,13,28,19.00
2013,09,08,13,29,19.00
2013,09,08,13,30,19.00
2013,09,08,13,31,18.90
2013,09,08,13,32,18.90
2013,09,08,13,33,18.90
2013,09,08,13,34,18.80
2013,09,08,13,35,18.70
2013,09,08,13,36,18.60
2013,09,08,13,37,18.50
2013,09,08,13,38,18.50
2013,09,08,13,39,18.40
2013,09,08,13,40,18.30
2013,09,08,13,41,18.20
2013,09,08,13,42,18.10
2013,09,08,13,43,18.10
2013,09,08,13,44,18.00
2013,09,08,13,45,18.00
2013,09,08,13,46,18.00
2013,09,08,13,47,18.00
2013,09,08,13,48,18.00
2013,09,08,13,49,18.00
2013,09,08,13,50,18.10
2013,09,08,13,51,18.10
2013,09,08,13,52,18.10
2013,09,08,13,53,18.10
2013,09,08,13,54,18.10
2013,09,08,13,55,18.10
2013,09,08,13,56,18.10
2013,09,08,13,57,18.00
2013,09,08,13,58,18.00
2013,09,08,13,59,18.00
2013,09,08,14,00,18.10
2013,09,08,14,01,18.20
2013,09,08,14,02,18.20
2013,09,08,14,03,18.20
2013,09,08,14,04,18.30
2013,09,08,14,05,18.30
2013,09,08,14,06,18.30
2013,09,08,14,07,18.30
2013,09,08,14,08,18.50
2013,09,08,14,09,18.60
2013,09,08,14,10,18.70
2013,09,08,14,11,18.80
2013,09,08,14,12,18.90
2013,09,08,14,13,19.00
2013,09,08,14,14,19.10
2013,09,08,14,15,19.20
2013,09,08,14,16,19.30
2013,09,08,14,17,19.40
2013,09,08,14,18,19.50
2013,09,08,14,19,19.60
2013,09,08,14,20,19.70
2013,09,08,14,21,19.70
2013,09,08,14,22,19.70
2013,09,08,14,23,19.70
2013,09,08,14,24,19.80
2013,09,08,14,25,19.80
2013,09,08,14,26,19.80
2013,09,08,14,27,19.90
2013,09,08,14,28,19.90
2013,09,08,14,29,20.00
2013,09,08,14,30,20.00
2013,09,08,14,31,20.00
2013,09,08,14,32,20.00
2013,09,08,14,33,20.00
2013,09,08,14,34,20.00
2013,09,08,14,35,20.10
2013,09,08,14,36,20.10
2013,09,08,14,37,20.20
2013,09,08,14,38,20.20
2013,09,08,14,39,20.20
2013,09,08,14,40,20.20
2013,09,08,14,41,20.20
2013,09,08,14,42,20.30
2013,09,08,14,43,20.30
2013,09,08,14,44,20.30
2013,09,08,14,45,20.30
2013,09,08,14,46,20.30
2013,09,08,14,47,20.30
2013,09,08,14,48,20.30
2013,09,08,14,49,20.40
2013,09,08,14,50,20.40
2013,09,08,14,51,20.40
2013,09,08,14,52,20.40
2013,09,08,14,53,20.40
2013,09,08,14,54,20.40
2013,09,08,14,55,20.40
2013,09,08,14,56,20.40
2013,09,08,14,57,20.40
2013,09,08,14,58,20.30
2013,09,08,14,59,20.30
2013,09,08,15,00,20.30
2013,09,08,15,01,20.40
2013,09,08,15,02,20.40
2013,09,08,15,03,20.40
2013,09,08,15,04,20.40
2013,09,08,15,05,20.50
2013,09,08,15,06,20.60
2013,09,08,15,07,20.50
2013,09,08,15,08,20.50
2013,09,08,15,09,20.40
2013,09,08,15,10,20.30
2013,09,08,15,11,20.30
2013,09,08,15,12,20.40
2013,09,08,15,13,20.40
2013,09,08,15,14,20.30
2013,09,08,15,15,20.30
2013,09,08,15,16,20.30
2013,09,08,15,17,20.20
2013,09,08,15,18,20.20
2013,09,08,15,19,20.20
2013,09,08,15,20,20.20
2013,09,08,15,21,20.20
2013,09,08,15,22,20.20
2013,09,08,15,23,20.20
2013,09,08,15,24,20.20
2013,09,08,15,25,20.30
2013,09,08,15,26,20.30
2013,09,08,15,27,20.40
2013,09,08,15,28,20.30
2013,09,08,15,29,20.30
2013,09,08,15,30,20.20
2013,09,08,15,31,20.20
2013,09,08,15,32,20.20
2013,09,08,15,33,20.20
2013,09,08,15,34,20.20
2013,09,08,15,35,20.10
2013,09,08,15,36,20.00
2013,09,08,15,37,20.00
2013,09,08,15,38,19.90
2013,09,08,15,39,19.80
2013,09,08,15,40,19.70
2013,09,08,15,41,19.60
2013,09,08,15,42,19.50
2013,09,08,15,43,19.40
2013,09,08,15,44,19.30
2013,09,08,15,45,19.30
2013,09,08,15,46,19.30
2013,09,08,15,47,19.30
2013,09,08,15,48,19.40
2013,09,08,15,49,19.50
2013,09,08,15,50,19.50
2013,09,08,15,51,19.50
2013,09,08,15,52,19.50
2013,09,08,15,53,19.40
2013,09,08,15,54,19.40
2013,09,08,15,55,19.40
2013,09,08,15,56,19.40
2013,09,08,15,57,19.50
2013,09,08,15,58,19.50
2013,09,08,15,59,19.50
2013,09,08,16,00,19.50
2013,09,08,16,01,19.60
2013,09,08,16,02,19.60
2013,09,08,16,03,19.70
2013,09,08,16,04,19.70
2013,09,08,16,05,19.80
2013,09,08,16,06,19.90
2013,09,08,16,07,20.00
2013,09,08,16,08,20.10
2013,09,08,16,09,20.10
2013,09,08,16,10,20.20
2013,09,08,16,11,20.20
2013,09,08,16,12,20.20
2013,09,08,16,13,20.30
2013,09,08,16,14,20.30
2013,09,08,16,15,20.20
2013,09,08,16,16,20.10
2013,09,08,16,17,20.10
2013,09,08,16,18,20.10
2013,09,08,16,19,20.00
2013,09,08,16,20,19.90
2013,09,08,16,21,19.90
2013,09,08,16,22,19.90
2013,09,08,16,23,19.80
2013,09,08,16,24,19.80
2013,09,08,16,25,19.80
2013,09,08,16,26,19.70
2013,09,08,16,27,19.70
2013,09,08,16,28,19.60
2013,09,08,16,29,19.50
2013,09,08,16,30,19.50
2013,09,08,16,31,19.50
2013,09,08,16,32,19.50
2013,09,08,16,33,19.40
2013,09,08,16,34,19.20
2013,09,08,16,35,19.10
2013,09,08,16,36,18.90
2013,09,08,16,37,18.80
2013,09,08,16,38,18.80
2013,09,08,16,39,18.80
2013,09,08,16,40,18.70
2013,09,08,16,41,18.60
2013,09,08,16,42,18.50
2013,09,08,16,43,18.40
2013,09,08,16,44,18.20
2013,09,08,16,45,17.90
2013,09,08,16,46,17.70
2013,09,08,16,47,17.60
2013,09,08,16,48,17.50
2013,09,08,16,49,17.40
2013,09,08,16,50,17.30
2013,09,08,16,51,17.30
2013,09,08,16,52,17.30
2013,09,08,16,53,17.20
2013,09,08,16,54,17.10
2013,09,08,16,55,16.90
2013,09,08,16,56,16.70
2013,09,08,16,57,16.60
2013,09,08,16,58,16.40
2013,09,08,16,59,16.30
2013,09,08,17,00,16.20
2013,09,08,17,01,16.10
2013,09,08,17,02,16.00
2013,09,08,17,03,16.00
2013,09,08,17,04,15.90
2013,09,08,17,05,16.00
2013,09,08,17,06,16.00
2013,09,08,17,07,16.00
2013,09,08,17,08,16.00
2013,09,08,17,09,16.10
2013,09,08,17,10,16.10
2013,09,08,17,11,16.00
2013,09,08,17,12,16.00
2013,09,08,17,13,15.80
2013,09,08,17,14,15.80
2013,09,08,17,15,15.70
2013,09,08,17,16,15.70
2013,09,08,17,17,15.70
2013,09,08,17,18,15.60
2013,09,08,17,19,15.50